QFA107 YSSY-KLAX

Flight info

Callsign QFA107
Flight time N/A
Altitude 33000
Route DIPSO G595 SOTKI DCT UBLIN/N0494F350 A579 TANIL DCT NN B581 WOOBY/N0493F370 DCT QUIGG B577 CANOL/N0483F390 B577 FICKY GOATZ2
Aircraft A388/J-SADE2E3FGHIJ3J4J5M1RWXY/LB1D1

Departure

Time 2026-05-06 22:32
Airport Sydney Kingsford Smith International Airport (YSSY)

Arrival

Time N/A
Airport Los Angeles International Airport (KLAX)
Time Latitude Longitude Altitude Speed Heading
2026-05-06 22:04 -33.93400 151.16787 35 ft 0 kts 258°
2026-05-06 22:16 -33.93399 151.16789 35 ft 2 kts 258°
2026-05-06 22:16 -33.93394 151.16818 34 ft 3 kts 258°
2026-05-06 22:16 -33.93390 151.16843 32 ft 4 kts 264°
2026-05-06 22:16 -33.93391 151.16873 31 ft 4 kts 285°
2026-05-06 22:17 -33.93400 151.16892 32 ft 4 kts 324°
2026-05-06 22:17 -33.93418 151.16900 32 ft 4 kts 347°
2026-05-06 22:17 -33.93445 151.16907 34 ft 4 kts 347°
2026-05-06 22:17 -33.93454 151.16909 34 ft 1 kts 347°
2026-05-06 22:21 -33.93442 151.16906 34 ft 3 kts 347°
2026-05-06 22:21 -33.93412 151.16898 31 ft 5 kts 347°
2026-05-06 22:21 -33.93372 151.16888 33 ft 0 kts 351°
2026-05-06 22:22 -33.93369 151.16887 34 ft 1 kts 351°
2026-05-06 22:22 -33.93356 151.16885 35 ft 0 kts 351°
2026-05-06 22:22 -33.93352 151.16884 35 ft 4 kts 356°
2026-05-06 22:23 -33.93323 151.16897 35 ft 5 kts 36°
2026-05-06 22:23 -33.93291 151.16927 35 ft 6 kts 56°
2026-05-06 22:23 -33.93284 151.16968 35 ft 6 kts 99°
2026-05-06 22:23 -33.93303 151.17017 34 ft 7 kts 128°
2026-05-06 22:24 -33.93355 151.17061 35 ft 12 kts 161°
2026-05-06 22:24 -33.93444 151.17084 34 ft 14 kts 168°
2026-05-06 22:24 -33.93550 151.17110 34 ft 16 kts 168°
2026-05-06 22:24 -33.93668 151.17142 34 ft 18 kts 166°
2026-05-06 22:25 -33.93795 151.17178 34 ft 20 kts 168°
2026-05-06 22:25 -33.93933 151.17214 34 ft 21 kts 168°
2026-05-06 22:25 -33.94076 151.17251 34 ft 22 kts 168°
2026-05-06 22:25 -33.94226 151.17290 34 ft 22 kts 168°
2026-05-06 22:26 -33.94376 151.17329 35 ft 22 kts 168°
2026-05-06 22:26 -33.94530 151.17369 35 ft 23 kts 168°
2026-05-06 22:26 -33.94666 151.17406 35 ft 17 kts 166°
2026-05-06 22:26 -33.94785 151.17435 35 ft 18 kts 167°
2026-05-06 22:27 -33.94917 151.17471 34 ft 20 kts 167°
2026-05-06 22:27 -33.95057 151.17507 34 ft 21 kts 168°
2026-05-06 22:27 -33.95201 151.17543 34 ft 22 kts 168°
2026-05-06 22:27 -33.95352 151.17582 34 ft 22 kts 168°
2026-05-06 22:28 -33.95507 151.17622 35 ft 23 kts 168°
2026-05-06 22:28 -33.95664 151.17663 35 ft 23 kts 168°
2026-05-06 22:28 -33.95824 151.17704 35 ft 24 kts 167°
2026-05-06 22:28 -33.95986 151.17748 35 ft 24 kts 167°
2026-05-06 22:29 -33.96142 151.17791 35 ft 23 kts 167°
2026-05-06 22:29 -33.96281 151.17828 35 ft 15 kts 168°
2026-05-06 22:29 -33.96363 151.17850 35 ft 13 kts 168°
2026-05-06 22:29 -33.96436 151.17902 34 ft 11 kts 104°
2026-05-06 22:30 -33.96426 151.17997 35 ft 12 kts 77°
2026-05-06 22:30 -33.96414 151.18045 35 ft 2 kts 47°
2026-05-06 22:30 -33.96401 151.18053 35 ft 3 kts
2026-05-06 22:30 -33.96366 151.18052 35 ft 2 kts 349°
2026-05-06 22:31 -33.96325 151.18042 34 ft 28 kts 346°
2026-05-06 22:31 -33.95894 151.17927 33 ft 95 kts 347°
2026-05-06 22:31 -33.95075 151.17714 32 ft 144 kts 348°
2026-05-06 22:31 -33.93997 151.17436 70 ft 169 kts 347°
2026-05-06 22:32 -33.92854 151.17132 462 ft 170 kts 346°
2026-05-06 22:32 -33.91673 151.16818 840 ft 176 kts 345°
2026-05-06 22:32 -33.90474 151.16571 1265 ft 180 kts 355°
2026-05-06 22:32 -33.89206 151.16895 1602 ft 194 kts 22°
2026-05-06 22:33 -33.88137 151.17979 1780 ft 213 kts 54°
2026-05-06 22:33 -33.87670 151.19718 1892 ft 226 kts 91°
2026-05-06 22:33 -33.87789 151.21619 2011 ft 241 kts 95°
2026-05-06 22:33 -33.87904 151.23711 2241 ft 262 kts 94°
2026-05-06 22:34 -33.87997 151.26014 2474 ft 283 kts 94°
2026-05-06 22:34 -33.88080 151.28404 3039 ft 287 kts 94°
2026-05-06 22:34 -33.88161 151.30838 3565 ft 295 kts 94°
2026-05-06 22:34 -33.88244 151.33319 4203 ft 296 kts 94°
2026-05-06 22:35 -33.88328 151.35797 4930 ft 293 kts 94°
2026-05-06 22:35 -33.88412 151.38219 5601 ft 293 kts 93°
2026-05-06 22:35 -33.88497 151.40666 6290 ft 292 kts 92°
2026-05-06 22:35 -33.88583 151.43107 6889 ft 294 kts 92°
2026-05-06 22:36 -33.88669 151.45597 7392 ft 299 kts 91°
2026-05-06 22:36 -33.88755 151.48086 7937 ft 302 kts 91°
2026-05-06 22:36 -33.88842 151.50629 8484 ft 306 kts 91°
2026-05-06 22:36 -33.88930 151.53210 9017 ft 310 kts 91°
2026-05-06 22:37 -33.89018 151.55822 9563 ft 314 kts 90°
2026-05-06 22:37 -33.89107 151.58457 10077 ft 318 kts 90°
2026-05-06 22:37 -33.89197 151.61181 10300 ft 332 kts 90°
2026-05-06 22:37 -33.89289 151.64027 10463 ft 347 kts 90°
2026-05-06 22:38 -33.89385 151.66954 10617 ft 361 kts 90°
2026-05-06 22:38 -33.89486 151.70022 10914 ft 369 kts 90°
2026-05-06 22:38 -33.89589 151.73144 11368 ft 373 kts 90°
2026-05-06 22:38 -33.89692 151.76278 11830 ft 377 kts 90°
2026-05-06 22:39 -33.89793 151.79416 12277 ft 381 kts 90°
2026-05-06 22:39 -33.89895 151.82620 12717 ft 384 kts 90°
2026-05-06 22:39 -33.89997 151.85844 13166 ft 388 kts 90°
2026-05-06 22:39 -33.90098 151.89100 13612 ft 392 kts 90°
2026-05-06 22:40 -33.90200 151.92408 14031 ft 395 kts 90°
2026-05-06 22:40 -33.90302 151.95705 14478 ft 397 kts 90°
2026-05-06 22:40 -33.90404 151.99039 14905 ft 399 kts 89°
2026-05-06 22:40 -33.90504 152.02387 15306 ft 402 kts 89°
2026-05-06 22:41 -33.90698 152.09144 16122 ft 408 kts 88°
2026-05-06 22:41 -33.90734 152.12567 16513 ft 410 kts 87°
2026-05-06 22:41 -33.90744 152.16010 16919 ft 412 kts 87°
2026-05-06 22:42 -33.90755 152.19491 17291 ft 415 kts 87°
2026-05-06 22:42 -33.90771 152.22970 17721 ft 416 kts 87°
2026-05-06 22:42 -33.90791 152.26431 18090 ft 419 kts 87°
2026-05-06 22:42 -33.90813 152.29969 18445 ft 422 kts 87°
2026-05-06 22:43 -33.90835 152.33519 18778 ft 424 kts 87°
2026-05-06 22:43 -33.90857 152.37081 19109 ft 426 kts 87°
2026-05-06 22:43 -33.90877 152.40635 19409 ft 429 kts 87°
2026-05-06 22:43 -33.90897 152.44253 19734 ft 431 kts 87°
2026-05-06 22:44 -33.90916 152.47885 20044 ft 434 kts 87°
2026-05-06 22:44 -33.90933 152.51486 20363 ft 436 kts 86°
2026-05-06 22:44 -33.90950 152.55148 20714 ft 437 kts 86°
2026-05-06 22:44 -33.90966 152.58861 21044 ft 439 kts 86°
2026-05-06 22:45 -33.90980 152.62504 21335 ft 442 kts 86°
2026-05-06 22:45 -33.90993 152.66224 21628 ft 444 kts 86°
2026-05-06 22:45 -33.91005 152.69971 21929 ft 447 kts 86°
2026-05-06 22:45 -33.91016 152.73675 22219 ft 449 kts 86°
2026-05-06 22:46 -33.91027 152.77449 22506 ft 451 kts 86°
2026-05-06 22:46 -33.91036 152.81241 22795 ft 454 kts 86°
2026-05-06 22:46 -33.91044 152.85063 23072 ft 456 kts 85°
2026-05-06 22:46 -33.91051 152.88890 23361 ft 458 kts 85°
2026-05-06 22:47 -33.91057 152.92735 23627 ft 461 kts 85°
2026-05-06 22:47 -33.91061 152.96568 23871 ft 463 kts 85°
2026-05-06 22:47 -33.91065 153.00460 24112 ft 465 kts 85°
2026-05-06 22:47 -33.91067 153.04360 24343 ft 467 kts 85°
2026-05-06 22:48 -33.91068 153.08303 24581 ft 469 kts 85°
2026-05-06 22:48 -33.91068 153.12202 24825 ft 472 kts 85°
2026-05-06 22:48 -33.91067 153.16159 25087 ft 472 kts 85°
2026-05-06 22:48 -33.91064 153.20129 25304 ft 475 kts 85°
2026-05-06 22:49 -33.91059 153.24107 25545 ft 478 kts 85°
2026-05-06 22:49 -33.91053 153.28134 25801 ft 480 kts 85°
2026-05-06 22:49 -33.91046 153.32162 26060 ft 482 kts 85°
2026-05-06 22:49 -33.91038 153.36170 26318 ft 485 kts 85°
2026-05-06 22:50 -33.91029 153.40237 26586 ft 487 kts 85°
2026-05-06 22:50 -33.91018 153.44335 26842 ft 490 kts 85°
2026-05-06 22:50 -33.91007 153.48435 27215 ft 490 kts 85°
2026-05-06 22:50 -33.90994 153.52559 27463 ft 493 kts 85°
2026-05-06 22:51 -33.90984 153.55303 27639 ft 495 kts 85°
2026-05-06 22:51 -33.90968 153.59465 27929 ft 497 kts 85°
2026-05-06 22:51 -33.90944 153.65011 28304 ft 501 kts 85°
2026-05-06 22:51 -33.90924 153.69219 28586 ft 504 kts 85°
2026-05-06 22:52 -33.90903 153.73444 28872 ft 506 kts 85°
2026-05-06 22:52 -33.90888 153.76265 29076 ft 507 kts 85°
2026-05-06 22:52 -33.90865 153.80522 29448 ft 508 kts 85°
2026-05-06 22:52 -33.90839 153.84787 29695 ft 511 kts 84°
2026-05-06 22:53 -33.90812 153.89082 29977 ft 514 kts 84°
2026-05-06 22:53 -33.90783 153.93400 30235 ft 516 kts 84°
2026-05-06 22:53 -33.90753 153.97693 30495 ft 518 kts 84°
2026-05-06 22:53 -33.90721 154.02056 30753 ft 521 kts 84°
2026-05-06 22:54 -33.90688 154.06438 30987 ft 523 kts 85°
2026-05-06 22:54 -33.90653 154.10811 31317 ft 523 kts 85°
2026-05-06 22:54 -33.90616 154.15207 31534 ft 526 kts 85°
2026-05-06 22:54 -33.90577 154.19572 31755 ft 528 kts 85°
2026-05-06 22:55 -33.90537 154.24001 32003 ft 530 kts 85°
2026-05-06 22:55 -33.90495 154.28452 32246 ft 532 kts 85°
2026-05-06 22:55 -33.90451 154.32921 32485 ft 534 kts 85°
2026-05-06 22:55 -33.90405 154.37406 32694 ft 537 kts 85°
2026-05-06 22:56 -33.90358 154.41913 32971 ft 538 kts 85°
2026-05-06 22:56 -33.90207 154.51020 32943 ft 552 kts 81°
2026-05-06 22:57 -33.89429 154.60254 32949 ft 555 kts 79°
2026-05-06 22:57 -33.88672 154.69458 32939 ft 554 kts 79°
2026-05-06 22:58 -33.87902 154.78671 32942 ft 552 kts 79°
2026-05-06 22:58 -33.87125 154.87828 32938 ft 552 kts 79°
2026-05-06 22:59 -33.86335 154.97036 32949 ft 552 kts 79°
2026-05-06 22:59 -33.85545 155.06175 32936 ft 552 kts 79°
2026-05-06 23:00 -33.84518 155.15302 32952 ft 544 kts 69°
2026-05-06 23:00 -33.83276 155.19543 32953 ft 534 kts 58°
2026-05-06 23:00 -33.81444 155.23395 32949 ft 522 kts 47°
2026-05-06 23:01 -33.76786 155.29966 32950 ft 514 kts 40°
2026-05-06 23:01 -33.72090 155.36388 32951 ft 515 kts 42°
2026-05-06 23:02 -33.67444 155.42995 32946 ft 516 kts 43°
2026-05-06 23:02 -33.62837 155.49608 32950 ft 517 kts 43°
2026-05-06 23:03 -33.58243 155.56193 32961 ft 517 kts 43°
2026-05-06 23:03 -33.53612 155.62814 32954 ft 518 kts 43°
2026-05-06 23:04 -33.49007 155.69383 32966 ft 518 kts 43°
2026-05-06 23:04 -33.44367 155.75985 32965 ft 518 kts 43°
2026-05-06 23:05 -33.39712 155.82596 32969 ft 518 kts 43°
2026-05-06 23:05 -33.35094 155.89143 32980 ft 518 kts 43°
2026-05-06 23:06 -33.30457 155.95703 32979 ft 516 kts 43°
2026-05-06 23:06 -33.25833 156.02235 32967 ft 516 kts 43°
2026-05-06 23:07 -33.21179 156.08796 32972 ft 516 kts 43°
2026-05-06 23:07 -33.16555 156.15304 32975 ft 517 kts 43°
2026-05-06 23:08 -33.11893 156.21852 32956 ft 516 kts 43°
2026-05-06 23:08 -33.07235 156.28384 32985 ft 516 kts 43°
2026-05-06 23:09 -33.02591 156.34886 32978 ft 517 kts 43°
2026-05-06 23:09 -32.97915 156.41419 32983 ft 517 kts 43°
2026-05-06 23:10 -32.93270 156.47898 32970 ft 517 kts 43°
2026-05-06 23:10 -32.88577 156.54433 32984 ft 518 kts 43°
2026-05-06 23:11 -32.83888 156.60949 32991 ft 518 kts 43°
2026-05-06 23:11 -32.79217 156.67431 32994 ft 518 kts 43°
2026-05-06 23:12 -32.74528 156.73925 33004 ft 518 kts 43°
2026-05-06 23:12 -32.69830 156.80420 32997 ft 519 kts 43°
2026-05-06 23:13 -32.65184 156.86832 32991 ft 519 kts 43°
2026-05-06 23:13 -32.60469 156.93327 33007 ft 519 kts 43°
2026-05-06 23:14 -32.55740 156.99832 33008 ft 519 kts 43°
2026-05-06 23:14 -32.51043 157.06280 32991 ft 519 kts 43°
2026-05-06 23:15 -32.46307 157.12769 33001 ft 520 kts 42°
2026-05-06 23:15 -32.41587 157.19226 33010 ft 521 kts 42°
2026-05-06 23:16 -32.36830 157.25724 33013 ft 521 kts 42°
2026-05-06 23:16 -32.32097 157.32176 32984 ft 522 kts 42°
2026-05-06 23:17 -32.27320 157.38675 33012 ft 523 kts 42°
2026-05-06 23:17 -32.22531 157.45181 33019 ft 524 kts 42°
2026-05-06 23:18 -32.17737 157.51683 33020 ft 524 kts 42°
2026-05-06 23:18 -32.12967 157.58142 33006 ft 524 kts 41°
2026-05-06 23:19 -32.08206 157.64575 33003 ft 525 kts 41°
2026-05-06 23:19 -32.03385 157.71078 33016 ft 526 kts 41°
2026-05-06 23:20 -31.98583 157.77546 33024 ft 526 kts 41°
2026-05-06 23:20 -31.93753 157.84040 32992 ft 527 kts 41°
2026-05-06 23:21 -31.88906 157.90543 33009 ft 528 kts 41°
2026-05-06 23:21 -31.84089 157.96996 33021 ft 528 kts 41°
2026-05-06 23:22 -31.79217 158.03513 33038 ft 529 kts 41°
2026-05-06 23:22 -31.74348 158.10013 33027 ft 530 kts 41°
2026-05-06 23:23 -31.69488 158.16491 33003 ft 531 kts 40°
2026-05-06 23:23 -31.64585 158.23015 33025 ft 532 kts 40°
2026-05-06 23:24 -31.59676 158.29535 33033 ft 533 kts 40°
2026-05-06 23:24 -31.54779 158.36029 33042 ft 534 kts 40°
2026-05-06 23:25 -31.49858 158.42543 33045 ft 534 kts 40°
2026-05-06 23:25 -31.44916 158.49074 33051 ft 534 kts 40°
2026-05-06 23:26 -31.39989 158.55572 33047 ft 534 kts 40°
2026-05-06 23:26 -31.35083 158.62033 33046 ft 533 kts 40°
2026-05-06 23:27 -31.30151 158.68518 33013 ft 533 kts 40°
2026-05-06 23:27 -31.25195 158.75019 33011 ft 534 kts 40°
2026-05-06 23:28 -31.20282 158.81455 33024 ft 535 kts 40°
2026-05-06 23:28 -31.15308 158.87960 33037 ft 536 kts 40°
2026-05-06 23:29 -31.10324 158.94469 33017 ft 537 kts 40°
2026-05-06 23:29 -31.05366 159.00932 33032 ft 538 kts 40°
2026-05-06 23:30 -31.00355 159.07452 33043 ft 539 kts 39°
2026-05-06 23:30 -30.95364 159.13936 33049 ft 540 kts 39°
2026-05-06 23:31 -30.90321 159.20476 33040 ft 541 kts 39°
2026-05-06 23:31 -30.85315 159.26958 33034 ft 541 kts 39°
2026-05-06 23:32 -30.80258 159.33492 33038 ft 542 kts 39°
2026-05-06 23:32 -30.75193 159.40028 33054 ft 543 kts 39°
2026-05-06 23:33 -30.70164 159.46506 33054 ft 544 kts 39°
2026-05-06 23:33 -30.65099 159.53020 33025 ft 545 kts 39°
2026-05-06 23:34 -30.60038 159.59517 33048 ft 545 kts 39°
2026-05-06 23:34 -30.54932 159.66059 33056 ft 546 kts 39°
2026-05-06 23:35 -30.49817 159.72604 33060 ft 547 kts 39°
2026-05-06 23:35 -30.44717 159.79118 33024 ft 547 kts 39°
2026-05-06 23:36 -30.39582 159.85666 33043 ft 548 kts 38°
2026-05-06 23:36 -30.34446 159.92202 33057 ft 549 kts 39°
2026-05-06 23:37 -30.29330 159.98704 33067 ft 550 kts 39°
2026-05-06 23:37 -30.24174 160.05247 33069 ft 550 kts 39°
2026-05-06 23:38 -30.18998 160.11802 33044 ft 550 kts 38°
2026-05-06 23:38 -30.13850 160.18311 33069 ft 551 kts 38°
2026-05-06 23:39 -30.08664 160.24856 33066 ft 552 kts 38°
2026-05-06 23:39 -30.04352 160.30291 33047 ft 553 kts 38°
2026-05-06 23:40 -29.98300 160.37907 33046 ft 554 kts 38°
2026-05-06 23:40 -29.93095 160.44443 33057 ft 555 kts 38°
2026-05-06 23:41 -29.88713 160.49939 33066 ft 555 kts 38°
2026-05-06 23:41 -29.83510 160.56454 33061 ft 556 kts 38°
2026-05-06 23:42 -29.78254 160.63025 33034 ft 556 kts 38°
2026-05-06 23:42 -29.73001 160.69581 33056 ft 557 kts 38°
2026-05-06 23:43 -29.67773 160.76094 33064 ft 557 kts 38°
2026-05-06 23:43 -29.62505 160.82647 33071 ft 558 kts 38°
2026-05-06 23:44 -29.57228 160.89201 33055 ft 558 kts 39°
2026-05-06 23:44 -29.51957 160.95736 33056 ft 557 kts 39°
2026-05-06 23:45 -29.46697 161.02246 33060 ft 558 kts 39°
2026-05-06 23:45 -29.41414 161.08774 33060 ft 558 kts 39°
2026-05-06 23:46 -29.36140 161.15279 33062 ft 559 kts 39°
2026-05-06 23:46 -29.30882 161.21756 33068 ft 559 kts 39°
2026-05-06 23:47 -29.25567 161.28290 33064 ft 559 kts 39°
2026-05-06 23:47 -29.20262 161.34803 33066 ft 559 kts 39°
2026-05-06 23:48 -29.14940 161.41327 33061 ft 559 kts 39°
2026-05-06 23:48 -29.09655 161.47794 33062 ft 559 kts 39°
2026-05-06 23:49 -29.04334 161.54294 33060 ft 559 kts 39°
2026-05-06 23:49 -28.99043 161.60748 33055 ft 559 kts 39°
2026-05-06 23:50 -28.93704 161.67249 33073 ft 560 kts 39°
2026-05-06 23:50 -28.85730 161.76939 33083 ft 560 kts 39°
2026-05-06 23:51 -28.80387 161.83419 33068 ft 560 kts 39°
2026-05-06 23:51 -28.75038 161.89897 33066 ft 560 kts 39°
2026-05-06 23:52 -28.69675 161.96381 33068 ft 561 kts 39°
2026-05-06 23:52 -28.64337 162.02823 33072 ft 561 kts 39°
2026-05-06 23:53 -28.58997 162.09259 33071 ft 560 kts 39°
2026-05-06 23:53 -28.53628 162.15720 33070 ft 560 kts 39°
2026-05-06 23:54 -28.48289 162.22132 33069 ft 561 kts 39°
2026-05-06 23:54 -28.42911 162.28582 33072 ft 560 kts 39°
2026-05-06 23:55 -28.37569 162.34981 33069 ft 561 kts 39°
2026-05-06 23:55 -28.32196 162.41404 33071 ft 561 kts 39°
2026-05-06 23:56 -28.26811 162.47832 33063 ft 561 kts 39°
2026-05-06 23:56 -28.21421 162.54256 33074 ft 562 kts 39°
2026-05-06 23:57 -28.16052 162.60646 33069 ft 562 kts 39°
2026-05-06 23:57 -28.10648 162.67067 33084 ft 561 kts 40°
2026-05-06 23:58 -28.05267 162.73455 33078 ft 562 kts 40°
2026-05-06 23:58 -28.02553 162.76673 33211 ft 564 kts 40°
2026-05-06 23:58 -27.99877 162.79844 33606 ft 564 kts 39°
2026-05-06 23:59 -27.97170 162.83051 33951 ft 564 kts 39°
2026-05-06 23:59 -27.94453 162.86267 34268 ft 564 kts 39°
2026-05-06 23:59 -27.91726 162.89492 34597 ft 563 kts 39°
2026-05-06 23:59 -27.89019 162.92692 34913 ft 563 kts 39°
2026-05-07 00:00 -27.86323 162.95873 35020 ft 565 kts 39°
2026-05-07 00:00 -27.83617 162.99069 35086 ft 561 kts 40°
2026-05-07 00:00 -27.78879 163.06216 35076 ft 573 kts 50°
2026-05-07 00:01 -27.74427 163.13692 35074 ft 572 kts 50°
2026-05-07 00:01 -27.69973 163.21071 35076 ft 573 kts 50°
2026-05-07 00:02 -27.65468 163.28468 35078 ft 573 kts 50°
2026-05-07 00:02 -27.60969 163.35830 35076 ft 572 kts 50°
2026-05-07 00:03 -27.56432 163.43240 35075 ft 573 kts 50°
2026-05-07 00:03 -27.51899 163.50629 35076 ft 573 kts 50°
2026-05-07 00:04 -27.47387 163.57974 35081 ft 573 kts 50°
2026-05-07 00:04 -27.42835 163.65369 35074 ft 573 kts 50°
2026-05-07 00:05 -27.38324 163.72687 35079 ft 572 kts 50°
2026-05-07 00:05 -27.33773 163.80056 35080 ft 572 kts 50°
2026-05-07 00:06 -27.29228 163.87405 35082 ft 572 kts 50°
2026-05-07 00:06 -27.24711 163.94696 35082 ft 572 kts 50°
2026-05-07 00:07 -27.20150 164.02044 35086 ft 572 kts 50°
2026-05-07 00:07 -27.15583 164.09393 35086 ft 572 kts 50°
2026-05-07 00:08 -27.11044 164.16684 35074 ft 572 kts 50°
2026-05-07 00:08 -27.06465 164.24025 35077 ft 573 kts 50°
2026-05-07 00:09 -27.01886 164.31355 35081 ft 573 kts 50°
2026-05-07 00:09 -26.97327 164.38642 35089 ft 574 kts 50°
2026-05-07 00:10 -26.92711 164.46007 35092 ft 574 kts 50°
2026-05-07 00:10 -26.88129 164.53306 35095 ft 575 kts 50°
2026-05-07 00:11 -26.83542 164.60601 35094 ft 574 kts 50°
2026-05-07 00:11 -26.78929 164.67926 35093 ft 574 kts 50°
2026-05-07 00:12 -26.74318 164.75236 35086 ft 574 kts 50°
2026-05-07 00:12 -26.69737 164.82486 35088 ft 574 kts 50°
2026-05-07 00:13 -26.65112 164.89793 35064 ft 573 kts 50°
2026-05-07 00:13 -26.60530 164.97021 35077 ft 573 kts 50°
2026-05-07 00:14 -26.55908 165.04302 35080 ft 574 kts 50°
2026-05-07 00:14 -26.51297 165.11551 35087 ft 574 kts 50°
2026-05-07 00:15 -26.46663 165.18828 35085 ft 574 kts 50°
2026-05-07 00:15 -26.42052 165.26054 35087 ft 575 kts 50°
2026-05-07 00:16 -26.37400 165.33336 35079 ft 575 kts 50°
2026-05-07 00:16 -26.32753 165.40596 35085 ft 575 kts 50°
2026-05-07 00:17 -26.28117 165.47828 35090 ft 576 kts 50°
2026-05-07 00:17 -26.23452 165.55094 35092 ft 576 kts 50°
2026-05-07 00:18 -26.18776 165.62365 35094 ft 577 kts 50°
2026-05-07 00:18 -26.14128 165.69582 35076 ft 577 kts 50°
2026-05-07 00:19 -26.09436 165.76856 35080 ft 577 kts 50°
2026-05-07 00:19 -26.04762 165.84090 35083 ft 577 kts 50°
2026-05-07 00:20 -26.00097 165.91299 35083 ft 577 kts 50°
2026-05-07 00:20 -25.95398 165.98549 35088 ft 576 kts 50°
2026-05-07 00:21 -25.90712 166.05768 35086 ft 576 kts 50°
2026-05-07 00:21 -25.86033 166.12965 35088 ft 576 kts 50°
2026-05-07 00:22 -25.81363 166.20136 35075 ft 576 kts 50°
2026-05-07 00:22 -25.76670 166.27332 35082 ft 576 kts 50°
2026-05-07 00:23 -25.71953 166.34555 35076 ft 576 kts 50°
2026-05-07 00:23 -25.67256 166.41734 35086 ft 576 kts 50°
2026-05-07 00:24 -25.62539 166.48934 35071 ft 576 kts 50°
2026-05-07 00:24 -25.57845 166.56086 35073 ft 577 kts 50°
2026-05-07 00:25 -25.53101 166.63305 35080 ft 577 kts 50°
2026-05-07 00:25 -25.49162 166.69290 35078 ft 578 kts 50°
2026-05-07 00:26 -25.43656 166.77644 35083 ft 578 kts 50°
2026-05-07 00:26 -25.38895 166.84855 35089 ft 579 kts 50°
2026-05-07 00:27 -25.34170 166.91999 35075 ft 579 kts 50°
2026-05-07 00:27 -25.29404 166.99197 35080 ft 579 kts 50°
2026-05-07 00:28 -25.25440 167.05175 35078 ft 580 kts 50°
2026-05-07 00:28 -25.19884 167.13540 35082 ft 580 kts 50°
2026-05-07 00:29 -25.15899 167.19533 35077 ft 580 kts 50°
2026-05-07 00:30 -25.06319 167.33904 35070 ft 581 kts 50°
2026-05-07 00:30 -25.01533 167.41068 35077 ft 581 kts 50°
2026-05-07 00:31 -24.96725 167.48254 35078 ft 581 kts 50°
2026-05-07 00:31 -24.91941 167.55394 35084 ft 582 kts 50°
2026-05-07 00:32 -24.87122 167.62579 35077 ft 582 kts 51°
2026-05-07 00:32 -24.82325 167.69724 35079 ft 582 kts 50°
2026-05-07 00:33 -24.77524 167.76860 35075 ft 582 kts 50°
2026-05-07 00:33 -24.72682 167.84016 35073 ft 582 kts 50°
2026-05-07 00:34 -24.67877 167.91127 35079 ft 582 kts 50°
2026-05-07 00:34 -24.63045 167.98277 35076 ft 582 kts 51°
2026-05-07 00:35 -24.58206 168.05424 35074 ft 583 kts 51°
2026-05-07 00:35 -24.53374 168.12547 35060 ft 583 kts 51°
2026-05-07 00:36 -24.48519 168.19694 35072 ft 582 kts 51°
2026-05-07 00:36 -24.43693 168.26788 35072 ft 582 kts 51°
2026-05-07 00:37 -24.38821 168.33937 35075 ft 583 kts 51°
2026-05-07 00:37 -24.33966 168.41052 35068 ft 583 kts 51°
2026-05-07 00:38 -24.29128 168.48133 35072 ft 583 kts 51°
2026-05-07 00:38 -24.24251 168.55260 35073 ft 583 kts 51°
2026-05-07 00:39 -24.19417 168.62314 35067 ft 583 kts 51°
2026-05-07 00:39 -24.14537 168.69424 35076 ft 583 kts 51°
2026-05-07 00:40 -24.09680 168.76491 35068 ft 583 kts 51°
2026-05-07 00:40 -24.04799 168.83583 35066 ft 583 kts 51°
2026-05-07 00:41 -23.99909 168.90677 35067 ft 583 kts 51°
2026-05-07 00:41 -23.95018 168.97763 35059 ft 582 kts 51°
2026-05-07 00:42 -23.90147 169.04810 35062 ft 583 kts 51°
2026-05-07 00:42 -23.85249 169.11887 35063 ft 583 kts 51°
2026-05-07 00:43 -23.80345 169.18962 35066 ft 583 kts 51°
2026-05-07 00:43 -23.75477 169.25974 35063 ft 583 kts 51°
2026-05-07 00:44 -23.70566 169.33040 35060 ft 583 kts 51°
2026-05-07 00:44 -23.65686 169.40050 35074 ft 582 kts 51°
2026-05-07 00:45 -23.60773 169.47098 35062 ft 582 kts 51°
2026-05-07 00:45 -23.55894 169.54088 35059 ft 582 kts 51°
2026-05-07 00:46 -23.50972 169.61128 35053 ft 582 kts 51°
2026-05-07 00:46 -23.46055 169.68153 35052 ft 582 kts 51°
2026-05-07 00:47 -23.41161 169.75135 35047 ft 582 kts 51°
2026-05-07 00:47 -23.36233 169.82155 35048 ft 582 kts 51°
2026-05-07 00:48 -23.31335 169.89125 35052 ft 582 kts 51°
2026-05-07 00:48 -23.26411 169.96120 35052 ft 582 kts 51°
2026-05-07 00:49 -23.21483 170.03112 35053 ft 582 kts 51°
2026-05-07 00:49 -23.16558 170.10090 35051 ft 582 kts 51°
2026-05-07 00:50 -23.11659 170.17022 35045 ft 582 kts 51°
2026-05-07 00:50 -23.06716 170.24007 35042 ft 582 kts 51°
2026-05-07 00:51 -23.01803 170.30941 35044 ft 582 kts 51°
2026-05-07 00:51 -22.96857 170.37911 35040 ft 582 kts 51°
2026-05-07 00:52 -22.91913 170.44869 35036 ft 581 kts 51°
2026-05-07 00:52 -22.87002 170.51771 35043 ft 581 kts 51°
2026-05-07 00:53 -22.82051 170.58720 35025 ft 581 kts 51°
2026-05-07 00:53 -22.77107 170.65650 35047 ft 581 kts 51°
2026-05-07 00:54 -22.72184 170.72543 35046 ft 581 kts 51°
2026-05-07 00:54 -22.67251 170.79439 35045 ft 581 kts 51°
2026-05-07 00:55 -22.62296 170.86358 35043 ft 581 kts 51°
2026-05-07 00:55 -22.57336 170.93273 35024 ft 581 kts 51°
2026-05-07 00:56 -22.52397 171.00151 35014 ft 581 kts 51°
2026-05-07 00:56 -22.47430 171.07059 35039 ft 581 kts 51°
2026-05-07 00:57 -22.42491 171.13918 35035 ft 580 kts 51°
2026-05-07 00:57 -22.37523 171.20808 35034 ft 580 kts 51°
2026-05-07 00:58 -22.32550 171.27698 35030 ft 580 kts 51°
2026-05-07 00:58 -22.27611 171.34530 35024 ft 581 kts 51°
2026-05-07 00:59 -22.20148 171.44840 35027 ft 580 kts 51°
2026-05-07 01:00 -22.15200 171.51668 35034 ft 580 kts 51°
2026-05-07 01:00 -22.10218 171.58535 35028 ft 580 kts 51°
2026-05-07 01:01 -22.05227 171.65386 35023 ft 580 kts 51°
2026-05-07 01:01 -22.00229 171.72239 35020 ft 580 kts 51°
2026-05-07 01:02 -21.95272 171.79041 35015 ft 581 kts 51°
2026-05-07 01:02 -21.90279 171.85884 35018 ft 580 kts 51°
2026-05-07 01:03 -21.85281 171.92721 35020 ft 579 kts 51°
2026-05-07 01:03 -21.80285 171.99547 35020 ft 579 kts 51°
2026-05-07 01:04 -21.75296 172.06353 35015 ft 580 kts 51°
2026-05-07 01:04 -21.70326 172.13126 35011 ft 580 kts 51°
2026-05-07 01:05 -21.65325 172.19932 35013 ft 580 kts 51°
2026-05-07 01:05 -21.60313 172.26745 35001 ft 580 kts 51°
2026-05-07 01:06 -21.55299 172.33552 35019 ft 580 kts 51°
2026-05-07 01:06 -21.50325 172.40296 35018 ft 580 kts 51°
2026-05-07 01:07 -21.45311 172.47087 35014 ft 580 kts 51°
2026-05-07 01:07 -21.40309 172.53852 35013 ft 580 kts 51°
2026-05-07 01:08 -21.35278 172.60649 35010 ft 580 kts 51°
2026-05-07 01:08 -21.30252 172.67430 35015 ft 580 kts 51°
2026-05-07 01:09 -21.25254 172.74166 35009 ft 580 kts 51°
2026-05-07 01:09 -21.20220 172.80942 35006 ft 580 kts 51°
2026-05-07 01:10 -21.15215 172.87670 35006 ft 580 kts 51°
2026-05-07 01:10 -21.10170 172.94444 35003 ft 580 kts 51°
2026-05-07 01:11 -21.05153 173.01173 35006 ft 580 kts 51°
2026-05-07 01:11 -21.00108 173.07931 35003 ft 580 kts 51°
2026-05-07 01:12 -20.95077 173.14662 35010 ft 579 kts 51°
2026-05-07 01:12 -20.90059 173.21366 34998 ft 579 kts 51°
2026-05-07 01:13 -20.85028 173.28082 34994 ft 579 kts 51°
2026-05-07 01:13 -20.79979 173.34812 34991 ft 579 kts 51°
2026-05-07 01:14 -20.74962 173.41493 34992 ft 579 kts 51°
2026-05-07 01:14 -20.69915 173.48205 34987 ft 579 kts 51°
2026-05-07 01:15 -20.64861 173.54918 35004 ft 579 kts 51°
2026-05-07 01:15 -20.60662 173.60491 34996 ft 579 kts 51°
2026-05-07 01:16 -20.54791 173.68272 34990 ft 579 kts 51°
2026-05-07 01:16 -20.50583 173.73843 34991 ft 579 kts 51°
2026-05-07 01:17 -20.45518 173.80541 34988 ft 579 kts 51°
2026-05-07 01:17 -20.40483 173.87191 34985 ft 579 kts 51°
2026-05-07 01:18 -20.35406 173.93890 34973 ft 579 kts 51°
2026-05-07 01:18 -20.30351 174.00552 34986 ft 578 kts 51°
2026-05-07 01:19 -20.25281 174.07225 34981 ft 578 kts 51°
2026-05-07 01:19 -20.20253 174.13837 34976 ft 577 kts 51°
2026-05-07 01:20 -20.15190 174.20487 34971 ft 577 kts 51°
2026-05-07 01:20 -20.10123 174.27134 34969 ft 577 kts 51°
2026-05-07 01:21 -20.05082 174.33739 34971 ft 577 kts 51°
2026-05-07 01:21 -20.00017 174.40368 34979 ft 576 kts 51°
2026-05-07 01:22 -19.94992 174.46938 34974 ft 576 kts 51°
2026-05-07 01:22 -19.89925 174.53554 34970 ft 576 kts 51°
2026-05-07 01:23 -19.84882 174.60133 34967 ft 575 kts 51°
2026-05-07 01:23 -19.79820 174.66728 34966 ft 575 kts 51°
2026-05-07 01:24 -19.74757 174.73319 34968 ft 575 kts 51°
2026-05-07 01:24 -19.69721 174.79865 34973 ft 575 kts 51°
2026-05-07 01:25 -19.64674 174.86420 34968 ft 574 kts 51°
2026-05-07 01:25 -19.59616 174.92982 34965 ft 574 kts 51°
2026-05-07 01:26 -19.54551 174.99546 34958 ft 574 kts 51°
2026-05-07 01:26 -19.49528 175.06047 34965 ft 574 kts 51°
2026-05-07 01:27 -19.44476 175.12580 34959 ft 573 kts 51°
2026-05-07 01:27 -19.39408 175.19125 34934 ft 573 kts 51°
2026-05-07 01:28 -19.34374 175.25623 34960 ft 572 kts 51°
2026-05-07 01:28 -19.29313 175.32151 34952 ft 572 kts 51°
2026-05-07 01:29 -19.24288 175.38619 34951 ft 572 kts 51°
2026-05-07 01:29 -19.19220 175.45124 34956 ft 571 kts 51°
2026-05-07 01:30 -19.14172 175.51604 34954 ft 571 kts 51°
2026-05-07 01:30 -19.09137 175.58064 34945 ft 571 kts 51°
2026-05-07 01:31 -19.04077 175.64546 34953 ft 569 kts 51°
2026-05-07 01:31 -18.99056 175.70973 34949 ft 569 kts 51°
2026-05-07 01:32 -18.94005 175.77431 34946 ft 568 kts 51°
2026-05-07 01:32 -18.88960 175.83875 34947 ft 568 kts 51°
2026-05-07 01:33 -18.83946 175.90272 34937 ft 568 kts 51°
2026-05-07 01:33 -18.78902 175.96701 34940 ft 568 kts 51°
2026-05-07 01:34 -18.73854 176.03128 34937 ft 568 kts 51°
2026-05-07 01:34 -18.68836 176.09510 34944 ft 567 kts 51°
2026-05-07 01:35 -18.63823 176.15881 34937 ft 566 kts 51°
2026-05-07 01:35 -18.58780 176.22283 34938 ft 566 kts 50°
2026-05-07 01:36 -18.53763 176.28644 34939 ft 566 kts 50°
2026-05-07 01:36 -18.48723 176.35028 34933 ft 566 kts 50°
2026-05-07 01:37 -18.44530 176.40334 34930 ft 566 kts 50°